DL3NBY Weather Reports


time (UTC)temp
F
wind
direction
speed
knots
gust
knots
rain 1hr
in
rain 24hr
in
rain mn
in
humidity
%
barometer
mb
20260503045108 44 0.0 0.0 0.00 0.00 0.00 99 1014.3
20260503043041 47 0.0 0.0 0.00 0.00 0.00 99 1014.4
20260503042038 0 0.0 0.0 0.00 0.00 0.00 1 1014.4
20260503041038 0 0.0 0.0 0.00 0.00 0.00 1 1014.2
20260503040032 0 0.0 0.0 0.00 0.00 0.00 1 1014.2
20260503034025 0 0.0 0.0 0.00 0.00 0.00 1 1014.3
20260503033022 0 0.0 0.0 0.00 0.00 0.00 1 1014.3
20260503032019 0 0.0 0.0 0.00 0.00 0.00 1 1014.4
20260503031016 0 0.0 0.0 0.00 0.00 0.00 1 1014.4
20260503024107 0 0.0 0.0 0.00 0.00 0.00 1 1014.5
20260503023104 0 0.0 0.0 0.00 0.00 0.00 1 1014.6
20260503021117 0 0.0 0.0 0.00 0.00 0.00 1 1014.7
20260503020055 0 0.0 0.0 0.00 0.00 0.00 1 1014.7
20260503015051 0 0.0 0.0 0.00 0.00 0.00 1 1014.7
20260503014048 0 0.0 0.0 0.00 0.00 0.00 1 1014.8
20260503012042 0 0.0 0.0 0.00 0.00 0.00 1 1014.8
20260503011038 0 0.0 0.0 0.00 0.00 0.00 1 1014.8
20260503010055 0 0.0 0.0 0.00 0.00 0.00 1 1014.8
20260503005032 0 0.0 0.0 0.00 0.00 0.00 1 1014.9
20260503003026 0 0.0 0.0 0.00 0.00 0.00 1 1015.0
20260503001020 0 0.0 0.0 0.00 0.00 0.00 1 1015.2
20260503000016 0 0.0 0.0 0.00 0.00 0.00 1 1015.1
20260502235114 0 0.0 0.0 0.00 0.00 0.00 1 1015.2
20260502234111 0 0.0 0.0 0.00 0.00 0.00 1 1015.2
20260502233107 0 0.0 0.0 0.00 0.00 0.00 1 1015.3
20260502232105 0 0.0 0.0 0.00 0.00 0.00 1 1015.2
20260502230119 47 0.0 0.0 0.00 0.00 0.00 49 1015.3
20260502225055 55 0.0 0.0 0.00 0.00 0.00 65 1015.4
20260502224052 0 0.0 0.0 0.00 0.00 0.00 1 1015.3
20260502223049 0 0.0 0.0 0.00 0.00 0.00 1 1015.4
20260502222046 0 0.0 0.0 0.00 0.00 0.00 1 1015.4
20260502221042 0 0.0 0.0 0.00 0.00 0.00 1 1015.4
20260502220040 0 0.0 0.0 0.00 0.00 0.00 1 1015.5
20260502215036 0 0.0 0.0 0.00 0.00 0.00 1 1015.5
20260502213030 0 0.0 0.0 0.00 0.00 0.00 1 1015.6
20260502212026 0 0.0 0.0 0.00 0.00 0.00 1 1015.6
20260502211023 0 0.0 0.0 0.00 0.00 0.00 1 1015.7
20260502210020 0 0.0 0.0 0.00 0.00 0.00 1 1015.7
20260502205016 0 0.0 0.0 0.00 0.00 0.00 1 1015.7
20260502203110 0 0.0 0.0 0.00 0.00 0.00 1 1015.8
20260502201104 0 0.0 0.0 0.00 0.00 0.00 1 1015.8
20260502200101 0 0.0 0.0 0.00 0.00 0.00 1 1015.8
20260502195058 0 0.0 0.0 0.00 0.00 0.00 1 1015.8
20260502194114 0 0.0 0.0 0.00 0.00 0.00 1 1015.8
20260502193051 0 0.0 0.0 0.00 0.00 0.00 1 1015.7
20260502192048 0 0.0 0.0 0.00 0.00 0.00 1 1015.6
20260502185038 0 0.0 0.0 0.00 0.00 0.00 1 1015.5
20260502184038 54 0.0 0.0 0.00 0.00 0.00 50 1015.5
20260502182059 60 0.0 0.0 0.00 0.00 0.00 71 1015.5
20260502181055 62 0.0 0.0 0.00 0.00 0.00 69 1015.4
20260502162040 76 216 1.7 6.1 0.00 0.00 0.00 37 1016.1
20260502161021 77 198 0.9 2.6 0.00 0.00 0.00 35 1016.2
20260502160114 77 180 0.0 1.7 0.00 0.00 0.00 34 1016.3
20260502151059 78 167 0.9 3.5 0.00 0.00 0.00 31 1016.7
20260502123109 78 90 0.0 2.6 0.00 0.00 0.00 34 1018.8
20260502122105 78 179 0.9 3.5 0.00 0.00 0.00 35 1019.0
20260502121102 78 195 1.7 3.5 0.00 0.00 0.00 34 1019.1
20260502115056 77 122 1.7 6.1 0.00 0.00 0.00 35 1019.4
20260502114053 77 79 0.9 3.5 0.00 0.00 0.00 37 1019.6
20260502113110 76 81 0.9 2.6 0.00 0.00 0.00 38 1019.7
20260502112046 76 70 1.7 3.5 0.00 0.00 0.00 37 1019.9
20260502111103 76 180 0.0 2.6 0.00 0.00 0.00 39 1019.9
20260502105037 74 33 0.9 3.5 0.00 0.00 0.00 40 1020.2
20260502104034 73 95 0.9 3.5 0.00 0.00 0.00 42 1020.3
20260502103030 73 136 1.7 6.1 0.00 0.00 0.00 41 1020.5
20260502102027 73 108 1.7 4.3 0.00 0.00 0.00 41 1020.6
20260502101024 72 45 0.9 3.5 0.00 0.00 0.00 43 1020.8
20260502091055 68 137 1.7 6.1 0.00 0.00 0.00 51 1021.5
20260502071017 56 90 0.0 1.7 0.00 0.00 0.00 73 1022.7
20260502065111 53 0.0 1.7 0.00 0.00 0.00 78 1022.8
20260502064108 52 0.0 0.0 0.00 0.00 0.00 80 1022.9
20260502063107 51 0.0 0.0 0.00 0.00 0.00 82 1022.9
20260502062101 49 0.0 0.0 0.00 0.00 0.00 83 1022.8
20260502061058 47 0.0 0.0 0.00 0.00 0.00 87 1022.9
20260502060055 46 0.0 0.0 0.00 0.00 0.00 87 1022.9
20260502054048 45 0.0 0.0 0.00 0.00 0.00 88 1022.9
20260502052042 43 0.0 0.0 0.00 0.00 0.00 91 1022.9
20260502050056 41 0.0 0.0 0.00 0.00 0.00 99 1022.9